,

(GMT )
Claresholm

Weather History for CWDK - November, 2013

Change the Weather History Date:

Friday, November 22, 2013

  Actual Average Record
Temperature  
Mean Temperature 14 °F -  
Max Temperature 28 °F - - ()
Min Temperature 1 °F - - ()
Degree Days  
Heating Degree Days 50    
Moisture  
Dew Point 5 °F    
Average Humidity 70    
Maximum Humidity 89    
Minimum Humidity 42    
Precipitation  
Precipitation 0.15 in - - ()
Sea Level Pressure  
Sea Level Pressure 30.62 in    
Wind  
Wind Speed 12 mph ()    
Max Wind Speed 23 mph    
Max Gust Speed 30 mph    
T = Trace of Precipitation, MM = Missing Value Source: Averaged Metar Reports

Daily Weather History Graph

Daily Weather History Graph

Search for Another Location

Airport or City:

Trip Planner

Search our weather history database for the weather conditions in past years. The results will help you decide how hot, cold, wet, or windy it might be!

Date:

Astronomy

Nov. 22, 2013 Rise Set
Actual Time 7:58 AM MST 4:42 PM MST
Civil Twilight 7:22 AM MST 5:18 PM MST
Nautical Twilight 6:42 AM MST 5:58 PM MST
Astronomical Twilight 6:03 AM MST 6:37 PM MST
Moon 9:26 PM MST (11/22) 11:37 AM MST (11/22)
Length of Visible Light 9h 56m
Length of Day
8h 43m
Waning Gibbous, 77% of the Moon is Illuminated
Nov 22
Waning Gibbous
Nov 25
Last Quarter
Dec 2
New
Dec 9
First Quarter
Dec 17
Full

Hourly Weather History & Observations

Time (MST) Temp. Windchill Dew Point Humidity Pressure Visibility Wind Dir Wind Speed Gust Speed Precip Events Conditions
12:00 AM 27.7 °F 13.5 °F 12.0 °F 52% 30.39 in - West 23.0 mph 29.9 mph N/A   Unknown
1:00 AM 28.2 °F 14.8 °F 12.7 °F 52% 30.40 in - West 20.7 mph 26.5 mph N/A   Unknown
2:00 AM 28.2 °F 15.5 °F 13.5 °F 54% 30.42 in - West 18.4 mph 24.2 mph N/A   Unknown
3:00 AM 28.2 °F 14.5 °F 12.9 °F 53% 30.45 in - West 21.9 mph 29.9 mph N/A   Unknown
4:00 AM 27.5 °F 13.9 °F 13.5 °F 56% 30.47 in - West 20.7 mph 26.5 mph N/A   Unknown
5:00 AM 28 °F - 14 °F 42% 30.48 in - West 20.7 mph - -  
5:00 AM 28.2 °F 14.8 °F 13.8 °F 55% 30.48 in - West 20.7 mph 26.5 mph N/A   Unknown
6:00 AM 28.6 °F 16.4 °F 13.6 °F 54% 30.51 in - West 17.3 mph - N/A   Unknown
7:00 AM 5.9 °F -10.5 °F 0.5 °F 78% 30.59 in - NE 12.7 mph - N/A   Unknown
8:00 AM 2.5 °F -10.0 °F -0.6 °F 87% 30.66 in - North 6.9 mph - N/A   Unknown
9:00 AM 3.0 °F -10.5 °F -2.4 °F 78% 30.70 in - North 8.1 mph - N/A   Unknown
10:00 AM 7.9 °F 1.2 °F 0.5 °F 72% 30.71 in - NW 3.5 mph - N/A   Unknown
11:00 AM 8 °F - 1 °F 62% 30.74 in - NNE 6.9 mph - -  
11:00 AM 8.1 °F -3.2 °F 1.0 °F 73% 30.74 in - NNE 6.9 mph - N/A   Unknown
12:00 PM 10.6 °F 4.3 °F 2.3 °F 69% 30.71 in - NNE 3.5 mph - N/A   Unknown
1:00 PM 15.8 °F - 2.3 °F 55% 30.70 in - West 1.2 mph - N/A   Unknown
2:00 PM 15.1 °F 6.4 °F 5.9 °F 67% 30.68 in - SE 5.8 mph - N/A   Unknown
3:00 PM 14.7 °F 5.9 °F 6.1 °F 69% 30.67 in - SE 5.8 mph - N/A   Unknown
4:00 PM 13.3 °F 5.6 °F 5.7 °F 72% 30.68 in - SSE 4.6 mph - N/A   Unknown
5:00 PM 9 °F - 5 °F 74% 30.69 in - SE 5.8 mph - -  
5:00 PM 8.8 °F -1.1 °F 4.6 °F 83% 30.69 in - SE 5.8 mph - N/A   Unknown
6:00 PM 6.1 °F -2.8 °F 3.6 °F 89% 30.74 in - SSE 4.6 mph - N/A   Unknown
7:00 PM 5.5 °F -5.0 °F 3.0 °F 89% 30.73 in - SSE 5.8 mph - N/A   Unknown
8:00 PM 4.6 °F -4.5 °F 1.9 °F 89% 30.71 in - ESE 4.6 mph - N/A   Unknown
9:00 PM 5.0 °F -2.1 °F 2.1 °F 88% 30.68 in - ESE 3.5 mph - N/A   Unknown
10:00 PM 5.5 °F - 3.0 °F 89% 30.66 in - SE 2.3 mph - N/A   Unknown
11:00 PM 4 °F - 1 °F 83% 30.65 in - SE 2.3 mph - -  
11:00 PM 3.9 °F - 1.4 °F 89% 30.65 in - SE 2.3 mph - N/A   Unknown